Simultaneous Nadir Overpasses (SNOs) Predictions

Prediction of SNOs between METOP-A and NOAA-19 Satellite Orbit:

Table of predicted SNOs for the next 14.0 days since TLE Epoch: 2/8/2019
Index Date (METOP-A) Time (METOP-A) Lat,Lon (METOP-A) SZA (METOP-A ) Date (NOAA-19) Time (NOAA-19) Lat,Lon (NOAA-19) SZA (NOAA-19 ) Distance(km) Time Diff (sec)
1 02/16/2019 01:50:44 79.38, 163.50 91.89 02/16/2019 01:49:30 79.41, 162.91 91.91 12.48 74
2 02/16/2019 02:41:26 -79.35, -29.44 88.17 02/16/2019 02:40:34 -79.37, -29.42 88.15 2.19 52
3 02/16/2019 03:32:06 79.36, 138.00 91.85 02/16/2019 03:31:29 79.36, 137.95 91.84 1.17 37
4 02/16/2019 04:22:47 -79.36, -54.68 88.17 02/16/2019 04:22:34 -79.34, -54.66 88.20 2.54 13
5 02/16/2019 05:13:28 79.34, 112.50 91.80 02/16/2019 05:13:30 79.36, 112.43 91.81 2.37 2
6 02/16/2019 06:04:09 -79.34, -80.18 88.22 02/16/2019 06:04:35 -79.34, -80.18 88.22 0.17 26
7 02/16/2019 06:54:49 79.35, 87.26 91.79 02/16/2019 06:55:30 79.33, 87.19 91.77 3.00 41
8 02/16/2019 07:45:31 -79.32,-105.68 88.27 02/16/2019 07:46:36 -79.34,-105.69 88.24 2.70 65




NCC Satellite Simultaneous Nadir Overpasses (SNOs) Prediction Service
